sat.trackr.live / text

‹ back to catalog

STARLINK-5371

NORAD 55489 · 2023-015AS

PAYLOAD ACTIVE UNKNOWN

§ Identity

Operator
Country
US
Launch date
2023-02-02
Launch site
AFETR
Launch vehicle
Mass (kg)
RCS (m²)

Purposes: comms

External: N2YO · Heavens-Above · Gunter

§ Orbital elements

Epoch: 2026-09-20T20:43:44.841216Z

Period
94.27 min
Inclination
43.0036°
Eccentricity
0.0001306
Mean motion
15.27578265 rev/d
Perigee alt
482.2 km
Apogee alt
484.0 km
Semi-major
6,861.2 km
B*
1.6431e-5
RAAN
317.5790°
Arg perigee
290.0794°
Mean anomaly
69.9917°
Rev number
20,044

§ Raw data

STARLINK-53711 55489U 23015AS  26263.86371344  .00000190  00000+0  16431-4 0  99952 55489  43.0036 317.5790 0001306 290.0794  69.9917 15.27578265200441

JSON: /api/v1/satellites/55489 · /tle

For live sub-satellite position, see the globe view (requires WebGL).

§ Visibility from observer

Set your observer location to see the next 7 days of passes ≥ 10°. The values pass through the URL so the page stays shareable.

No JS? Fill the form by hand. The geolocation button needs JavaScript.